DW5473 Weather Reports


Display with metric or nautical units.
time (UTC)temp
F
wind
direction
speed
MPH
gust
MPH
rain 1hr
in
rain 24hr
in
rain mn
in
humidity
%
barometer
mb
20260504023947 60 147 1.0 6.0 0.00 0.06 0.06 61 1006.6
20260504023444 60 179 1.0 6.0 0.00 0.06 0.06 61 1006.6
20260504022944 61 226 1.0 6.0 0.00 0.06 0.06 60 1006.6
20260504021440 62 185 0.0 3.0 0.00 0.06 0.06 58 1006.5
20260504020940 62 185 0.0 1.0 0.00 0.06 0.06 58 1006.4
20260504020441 62 185 0.0 1.0 0.00 0.06 0.06 57 1006.4
20260504015947 62 185 0.0 1.0 0.00 0.06 0.06 57 1006.3
20260504014934 63 185 0.0 3.0 0.00 0.06 0.06 55 1006.1
20260504014429 64 183 0.0 3.0 0.00 0.06 0.06 55 1005.9
20260504013417 64 167 0.0 4.0 0.00 0.06 0.06 53 1005.8
20260504012910 65 183 0.0 3.0 0.00 0.06 0.06 53 1005.9
20260504012412 65 182 0.0 3.0 0.00 0.06 0.06 52 1005.9
20260504011909 65 193 0.0 3.0 0.00 0.06 0.06 51 1005.8
20260504011409 66 193 1.0 3.0 0.00 0.06 0.06 51 1005.7
20260504010909 66 160 1.0 4.0 0.00 0.06 0.06 50 1005.7
20260504010411 66 160 1.0 7.0 0.00 0.06 0.06 49 1005.6
20260504005912 67 180 1.0 7.0 0.00 0.06 0.06 48 1005.5
20260504005408 67 189 1.0 6.0 0.00 0.06 0.06 47 1005.5
20260504004905 68 178 1.0 6.0 0.00 0.06 0.06 46 1005.5
20260504004408 68 179 1.0 6.0 0.00 0.06 0.06 46 1005.5
20260504003904 69 170 1.0 6.0 0.00 0.06 0.06 45 1005.6
20260504003406 69 136 1.0 7.0 0.00 0.06 0.06 44 1005.7
20260504002904 69 210 1.0 7.0 0.00 0.06 0.06 44 1005.6
20260504002404 70 168 1.0 6.0 0.00 0.06 0.06 43 1005.7
20260504001403 70 147 1.0 6.0 0.00 0.06 0.06 42 1005.6
20260504000416 71 282 3.0 10.0 0.00 0.06 0.06 40 1005.6
20260503235904 71 280 3.0 12.0 0.00 0.06 0.06 40 1005.6
20260503235356 71 250 4.0 12.0 0.00 0.06 0.06 41 1005.6
20260503233835 71 196 4.0 13.0 0.00 0.06 0.06 40 1005.6
20260503233330 71 236 5.0 16.0 0.00 0.06 0.06 41 1005.7
20260503232820 71 282 5.0 16.0 0.00 0.06 0.06 40 1005.6
20260503232317 71 240 5.0 16.0 0.00 0.06 0.06 40 1005.6
20260503231307 71 209 5.0 19.0 0.00 0.06 0.06 40 1005.7
20260503230812 71 264 5.0 21.0 0.00 0.06 0.06 40 1005.8
20260503225809 71 100 6.0 16.0 0.00 0.06 0.06 40 1005.9
20260503225306 71 266 9.0 21.0 0.00 0.06 0.06 40 1006.0
20260503224812 71 251 9.0 21.0 0.00 0.06 0.06 39 1005.9
20260503224310 71 263 6.0 16.0 0.00 0.06 0.06 40 1006.0
20260503223804 71 242 6.0 19.0 0.00 0.06 0.06 41 1006.0
20260503222811 71 301 6.0 21.0 0.00 0.06 0.06 41 1006.3
20260503222311 71 243 8.0 21.0 0.00 0.06 0.06 41 1006.3
20260503221807 71 251 9.0 22.0 0.00 0.06 0.06 41 1006.1
20260503221309 71 268 10.0 22.0 0.00 0.06 0.06 39 1006.1
20260503220803 71 257 8.0 22.0 0.00 0.06 0.06 40 1006.3
20260503220314 71 263 5.0 16.0 0.00 0.06 0.06 41 1006.0
20260503215318 71 238 5.0 22.0 0.00 0.06 0.06 44 1006.0
20260503214812 71 263 6.0 22.0 0.00 0.06 0.06 44 1006.1
20260503213313 70 255 5.0 21.0 0.00 0.06 0.06 43 1006.4
20260503212806 70 234 5.0 21.0 0.00 0.06 0.06 44 1006.5
20260503212306 70 220 5.0 21.0 0.00 0.06 0.06 44 1006.6
20260503211818 69 282 5.0 16.0 0.00 0.06 0.06 44 1006.7
20260503211308 69 266 6.0 16.0 0.00 0.06 0.06 45 1006.6
20260503210804 69 21 6.0 18.0 0.00 0.06 0.06 44 1006.8
20260503210308 69 253 5.0 18.0 0.00 0.06 0.06 44 1006.8
20260503205804 69 238 5.0 16.0 0.00 0.06 0.06 45 1006.8
20260503205304 69 184 5.0 16.0 0.00 0.06 0.06 44 1006.9
20260503204803 68 249 5.0 18.0 0.00 0.06 0.06 44 1007.0
20260503203753 68 287 6.0 22.0 0.00 0.06 0.06 45 1007.2
20260503203255 69 279 5.0 22.0 0.00 0.06 0.06 44 1007.3
20260503202254 68 145 5.0 16.0 0.00 0.06 0.06 46 1007.4
20260503201801 68 256 6.0 19.0 0.00 0.06 0.06 46 1007.5
20260503200753 67 251 6.0 22.0 0.00 0.06 0.06 45 1007.6
20260503200256 68 238 6.0 18.0 0.00 0.06 0.06 45 1007.8
20260503195249 67 132 8.0 27.0 0.00 0.06 0.06 45 1007.9
20260503194757 67 159 8.0 26.0 0.00 0.06 0.06 46 1007.9
20260503194252 67 227 6.0 26.0 0.00 0.06 0.06 47 1008.0
20260503193753 67 186 6.0 26.0 0.00 0.06 0.06 46 1008.0
20260503193247 67 211 6.0 16.0 0.00 0.06 0.06 46 1008.1
20260503192744 67 253 5.0 15.0 0.00 0.06 0.06 47 1008.1
20260503191742 66 238 6.0 16.0 0.00 0.06 0.06 48 1008.4
20260503191245 66 204 6.0 16.0 0.00 0.06 0.06 47 1008.6
20260503190241 65 261 8.0 24.0 0.00 0.06 0.06 47 1008.8
20260503185743 65 166 6.0 27.0 0.00 0.06 0.06 47 1008.8
20260503185245 65 288 8.0 27.0 0.00 0.06 0.06 45 1008.9
20260503184741 65 276 8.0 30.0 0.00 0.06 0.06 47 1008.8
20260503184243 65 168 8.0 30.0 0.00 0.06 0.06 47 1008.8
20260503183244 65 127 9.0 24.0 0.00 0.06 0.06 48 1008.9
20260503182737 65 182 6.0 22.0 0.00 0.06 0.06 46 1009.2
20260503182237 65 201 6.0 21.0 0.00 0.06 0.06 48 1009.3
20260503181739 65 251 6.0 21.0 0.00 0.06 0.06 48 1009.3
20260503180741 64 149 5.0 16.0 0.00 0.06 0.06 56 1009.5
20260503180238 63 127 6.0 19.0 0.00 0.06 0.06 57 1009.6
20260503175239 62 160 6.0 24.0 0.00 0.06 0.06 60 1009.7
20260503174740 61 153 8.0 24.0 0.00 0.06 0.06 59 1009.9
20260503174237 61 156 8.0 24.0 0.00 0.06 0.06 58 1009.7
20260503173743 61 211 6.0 22.0 0.00 0.06 0.06 59 1009.7
20260503173243 60 194 8.0 22.0 0.00 0.06 0.06 59 1009.7
20260503172736 60 137 6.0 21.0 0.00 0.06 0.06 61 1009.8
20260503172241 59 160 6.0 21.0 0.00 0.06 0.06 62 1009.7
20260503171741 59 211 6.0 19.0 0.00 0.06 0.06 60 1009.9
20260503171238 59 100 8.0 19.0 0.00 0.06 0.06 59 1009.9
20260503170742 58 178 8.0 18.0 0.00 0.06 0.06 58 1010.0
20260503170236 58 21 8.0 24.0 0.00 0.06 0.06 59 1010.3
20260503150715 48 144 4.0 12.0 0.04 0.06 0.06 82 1012.6
20260503150208 48 158 4.0 10.0 0.04 0.06 0.06 82 1012.8
20260503140145 50 185 1.0 9.0 0.01 0.01 0.01 78 1013.8
20260503131138 50 147 3.0 9.0 0.00 0.00 0.00 76 1013.7
20260503130639 50 209 3.0 6.0 0.00 0.00 0.00 75 1013.9
20260503130140 50 198 3.0 12.0 0.00 0.00 0.00 74 1014.1
20260503120132 47 245 3.0 10.0 0.00 0.00 0.00 64 1014.3
20260503110623 47 336 3.0 13.0 0.00 0.00 0.00 62 1013.8
20260503110120 47 155 3.0 13.0 0.00 0.00 0.00 62 1013.6
20260503100108 47 105 4.0 13.0 0.00 0.00 0.00 59 1014.1
20260503090107 47 145 3.0 10.0 0.00 0.00 0.00 58 1014.3
20260503081602 47 153 1.0 6.0 0.00 0.00 0.00 58 1014.6
20260503081103 47 172 1.0 7.0 0.00 0.00 0.00 58 1014.6
20260503080601 47 176 3.0 7.0 0.00 0.00 0.00 58 1014.7
20260503072549 46 144 1.0 9.0 0.00 0.00 0.00 58 1014.9
20260503072047 46 198 1.0 9.0 0.00 0.00 0.00 57 1014.9
20260503071538 46 206 1.0 6.0 0.00 0.00 0.00 57 1014.9
20260503071048 46 183 1.0 7.0 0.00 0.00 0.00 57 1015.0
20260503070544 46 222 3.0 7.0 0.00 0.00 0.00 57 1015.0
20260503055036 46 207 1.0 4.0 0.00 0.00 0.00 57 1015.5
20260503054534 46 157 1.0 7.0 0.00 0.00 0.00 57 1015.6
20260503054032 46 177 1.0 7.0 0.00 0.00 0.00 57 1015.6
20260503053535 46 207 1.0 6.0 0.00 0.00 0.00 57 1015.7
20260503053031 47 166 1.0 6.0 0.00 0.00 0.00 57 1015.7
20260503052531 47 164 1.0 4.0 0.00 0.00 0.00 57 1015.8
20260503052028 47 279 1.0 3.0 0.00 0.00 0.00 57 1015.9
20260503051530 47 138 1.0 4.0 0.00 0.00 0.00 57 1015.8
20260503051030 47 245 1.0 4.0 0.00 0.00 0.00 57 1015.9
20260503050533 47 182 1.0 6.0 0.00 0.00 0.00 57 1015.9
20260503050029 47 176 1.0 6.0 0.00 0.00 0.00 57 1015.9
20260503045027 47 239 0.0 4.0 0.00 0.00 0.00 57 1016.0
20260503044527 47 237 0.0 6.0 0.00 0.00 0.00 57 1016.0
20260503044025 47 181 1.0 6.0 0.00 0.00 0.00 57 1016.0
20260503043523 47 179 1.0 6.0 0.00 0.00 0.00 57 1016.0
20260503043021 47 178 1.0 6.0 0.00 0.00 0.00 57 1016.1
20260503042519 47 159 1.0 3.0 0.00 0.00 0.00 57 1016.2
20260503042016 47 164 1.0 4.0 0.00 0.00 0.00 57 1016.1
20260503041514 46 219 1.0 4.0 0.00 0.00 0.00 57 1016.1
20260503041021 46 205 1.0 3.0 0.00 0.00 0.00 56 1016.3
20260503040507 46 146 1.0 4.0 0.00 0.00 0.00 57 1016.3
20260503040006 46 145 1.0 4.0 0.00 0.00 0.00 57 1016.4
20260503035506 46 144 0.0 4.0 0.00 0.00 0.00 57 1016.4
20260503035007 46 178 0.0 4.0 0.00 0.00 0.00 57 1016.4
20260503034506 46 178 0.0 4.0 0.00 0.00 0.00 57 1016.5
20260503034009 46 178 0.0 4.0 0.00 0.00 0.00 56 1016.5
20260503033511 46 178 0.0 3.0 0.00 0.00 0.00 56 1016.4
20260503032504 47 180 0.0 3.0 0.00 0.00 0.00 56 1016.5
20260503031005 47 180 0.0 3.0 0.00 0.00 0.00 55 1016.8
20260503030508 47 180 0.0 3.0 0.00 0.00 0.00 55 1016.8
20260503030008 47 180 0.0 3.0 0.00 0.00 0.00 54 1016.8
20260503025005 48 180 0.0 6.0 0.00 0.00 0.00 53 1016.8
20260503024506 48 182 0.0 6.0 0.00 0.00 0.00 53 1016.8